Weather History for Flora, IL

Change the Weather History Date:

Wednesday, December 26, 2012

  Actual Average (KEVV) Record (KEVV)
Temperature  
Mean Temperature 31 °F 34 °F  
Max Temperature 33 °F 42 °F 73 °F (1942)
Min Temperature 29 °F 25 °F 3 °F (1903)
Degree Days  
Heating Degree Days 34 32  
Month to date heating degree days 752  
Since 1 July heating degree days 1613  
Cooling Degree Days 0 0  
Month to date cooling degree days 0  
Year to date cooling degree days 1397  
Moisture  
Dew Point 28 °F    
Average Humidity 85    
Maximum Humidity 96    
Minimum Humidity 74    
Precipitation  
Precipitation 0.00 in 0.11 in 1.38 in (1916)
Month to date precipitation 3.22  
Year to date precipitation 44.77  
Snow  
Snow 0.00 in 0.10 in 7.70 in (2012)
Month to date snowfall 2.5  
Since 1 July snowfall 2.8  
Snow Depth -    
Sea Level Pressure  
Sea Level Pressure 29.91 in    
Wind  
Wind Speed 18 mph (NNW)    
Max Wind Speed 25 mph    
Max Gust Speed 36 mph    
Visibility 6 miles    
Events Snow    
T = Trace of Precipitation, MM = Missing Value Source: NWS Daily Summary

Daily Weather History Graph

Daily Weather History Graph

Search for Another Location

Airport:

Trip Planner

Search our weather history database for the weather conditions in past years. The results will help you decide how hot, cold, wet, or windy it might be!

Date:

Astronomy

Dec. 26, 2012 Rise Set
Actual Time 7:10 AM CST 4:39 PM CST
Civil Twilight 6:40 AM CST 5:08 PM CST
Nautical Twilight 6:07 AM CST 5:42 PM CST
Astronomical Twilight 5:34 AM CST 6:14 PM CST
Moon 3:32 PM CST (12/26) 5:34 AM CST (12/26)
Length of Visible Light 10h 28m
Length of Day
9h 28m
Waxing Gibbous, 97% of the Moon is Illuminated
Dec 26
Waxing Gibbous
Dec 28
Full
Jan 4
Last Quarter
Jan 11
New
Jan 18
First Quarter

Hourly Weather History & Observations

Time (CST) Temp. Windchill Dew Point Humidity Pressure Visibility Wind Dir Wind Speed Gust Speed Precip Events Conditions
12:15 AM 33.1 °F 21.2 °F 25.7 °F 74% 29.88 in 10.0 mi NNE 20.7 mph 32.2 mph N/A   Overcast
12:35 AM 33.3 °F 23.2 °F 26.2 °F 75% 29.89 in 10.0 mi NNE 15.0 mph 24.2 mph N/A   Overcast
12:55 AM 33.1 °F 22.2 °F 26.4 °F 77% 29.86 in 10.0 mi NNE 17.3 mph 25.3 mph N/A   Overcast
1:15 AM 33.4 °F 21.4 °F 26.8 °F 77% 29.84 in 10.0 mi NNE 21.9 mph 27.6 mph N/A   Overcast
1:35 AM 33.4 °F 22.3 °F 26.6 °F 76% 29.84 in 10.0 mi NNE 18.4 mph 27.6 mph N/A   Overcast
1:55 AM 33.4 °F 23.1 °F 27.0 °F 77% 29.85 in 10.0 mi NNE 16.1 mph 27.6 mph N/A   Overcast
2:15 AM 33.4 °F 21.4 °F 27.1 °F 78% 29.84 in 10.0 mi NNE 21.9 mph 28.8 mph N/A   Overcast
2:35 AM 33.4 °F 21.1 °F 27.3 °F 78% 29.82 in 10.0 mi NNE 23.0 mph 28.8 mph N/A   Overcast
2:55 AM 33.8 °F 21.3 °F 26.6 °F 75% 29.79 in 7.0 mi North 24.2 mph 32.2 mph N/A Snow Light Snow
3:15 AM 32.4 °F 20.6 °F 28.4 °F 85% 29.80 in 1.8 mi NNE 19.6 mph 28.8 mph N/A Snow Light Snow
3:35 AM 32.0 °F 19.8 °F 29.3 °F 90% 29.79 in 1.5 mi North 20.7 mph 27.6 mph N/A Snow Light Snow
3:55 AM 31.6 °F 18.7 °F 29.3 °F 91% 29.77 in 1.0 mi North 23.0 mph 29.9 mph N/A Snow Snow
4:15 AM 31.5 °F 19.4 °F 29.3 °F 92% 29.76 in 2.0 mi North 19.6 mph 29.9 mph N/A Snow Light Snow
4:35 AM 31.1 °F 19.3 °F 29.7 °F 94% 29.76 in 2.0 mi North 18.4 mph 26.5 mph N/A Snow Light Snow
4:55 AM 30.9 °F 19.4 °F 29.8 °F 96% 29.76 in 1.2 mi North 17.3 mph 23.0 mph N/A Snow Light Snow
5:15 AM 30.6 °F 17.6 °F 29.3 °F 95% 29.75 in 1.2 mi North 21.9 mph 27.6 mph N/A Snow Light Snow
5:35 AM 30.2 °F 17.4 °F 29.3 °F 96% 29.75 in 1.0 mi North 20.7 mph 28.8 mph N/A Snow Snow
5:55 AM 30.0 °F 16.0 °F 29.1 °F 96% 29.75 in 1.5 mi North 25.3 mph 29.9 mph N/A Snow Light Snow
6:15 AM 30.0 °F 16.3 °F 28.9 °F 96% 29.75 in 1.8 mi North 24.2 mph 28.8 mph N/A   Overcast
6:35 AM 29.8 °F 15.7 °F 28.4 °F 94% 29.76 in 2.0 mi North 25.3 mph 35.7 mph N/A Snow Light Snow
6:55 AM 29.7 °F 16.7 °F 28.4 °F 95% 29.76 in 2.0 mi North 20.7 mph 32.2 mph N/A Snow Light Snow
7:15 AM 29.7 °F 16.1 °F 28.4 °F 95% 29.76 in 1.0 mi North 23.0 mph 32.2 mph N/A Snow Snow
7:35 AM 29.3 °F 15.0 °F 28.4 °F 96% 29.77 in 0.5 mi North 25.3 mph 31.1 mph N/A Snow Snow
7:55 AM 29.1 °F 15.7 °F 28.0 °F 96% 29.78 in 0.8 mi North 21.9 mph 31.1 mph N/A Snow Light Snow
8:15 AM 29.1 °F 15.7 °F 27.7 °F 94% 29.79 in 0.8 mi North 21.9 mph 32.2 mph N/A Snow Light Snow
8:35 AM 29.3 °F 15.6 °F 28.0 °F 95% 29.79 in 0.8 mi North 23.0 mph 28.8 mph N/A Snow Light Snow
8:55 AM 29.3 °F 15.9 °F 28.2 °F 96% 29.80 in 0.8 mi North 21.9 mph 27.6 mph N/A Snow Light Snow
9:15 AM 29.7 °F 17.4 °F 28.2 °F 94% 29.81 in 1.0 mi North 18.4 mph 29.9 mph N/A Snow Light Snow
9:35 AM 29.8 °F 17.3 °F 28.2 °F 94% 29.82 in 1.0 mi North 19.6 mph 29.9 mph N/A Snow Light Snow
9:55 AM 30.0 °F 17.2 °F 28.2 °F 93% 29.83 in 1.2 mi North 20.7 mph 28.8 mph N/A Snow Light Snow
10:15 AM 30.4 °F 17.7 °F 28.6 °F 93% 29.84 in 1.0 mi North 20.7 mph 29.9 mph N/A Snow Light Snow
10:35 AM 30.7 °F 18.1 °F 28.4 °F 91% 29.84 in 1.8 mi North 20.7 mph 33.4 mph N/A Snow Light Snow
10:55 AM 31.1 °F 17.4 °F 28.0 °F 88% 29.84 in 2.5 mi North 25.3 mph 29.9 mph N/A Snow Light Snow
11:15 AM 31.1 °F 18.0 °F 27.5 °F 87% 29.85 in 2.5 mi North 23.0 mph 28.8 mph N/A Snow Light Snow
11:35 AM 31.5 °F 19.4 °F 27.5 °F 85% 29.86 in 3.0 mi NNW 19.6 mph 26.5 mph N/A Snow Light Snow
11:55 AM 31.6 °F 20.0 °F 27.7 °F 85% 29.86 in 3.0 mi NNW 18.4 mph 25.3 mph N/A Snow Light Snow
12:15 PM 32.0 °F 19.8 °F 27.5 °F 83% 29.86 in 4.0 mi NNW 20.7 mph 28.8 mph N/A Snow Light Snow
12:35 PM 32.0 °F 20.1 °F 27.5 °F 83% 29.87 in 3.0 mi NNW 19.6 mph 26.5 mph N/A Snow Light Snow
12:55 PM 32.0 °F 21.2 °F 27.5 °F 83% 29.88 in 5.0 mi NNW 16.1 mph 25.3 mph N/A Snow Light Snow
1:15 PM 32.5 °F 21.5 °F 27.5 °F 82% 29.89 in 5.0 mi NNW 17.3 mph 25.3 mph N/A Snow Light Snow
1:35 PM 32.5 °F 21.5 °F 28.2 °F 84% 29.89 in 3.0 mi NNW 17.3 mph 25.3 mph N/A Snow Light Snow
1:55 PM 32.7 °F 22.1 °F 28.2 °F 83% 29.90 in 5.0 mi North 16.1 mph 25.3 mph N/A Snow Light Snow
2:15 PM 32.5 °F 22.3 °F 28.4 °F 85% 29.92 in 3.0 mi NNW 15.0 mph 19.6 mph N/A Snow Light Snow
2:35 PM 32.5 °F 21.9 °F 28.2 °F 84% 29.93 in 5.0 mi NNW 16.1 mph 24.2 mph N/A Snow Light Snow
2:55 PM 32.4 °F 22.5 °F 28.4 °F 85% 29.94 in 3.0 mi NNW 13.8 mph - N/A Snow Light Snow
3:15 PM 32.7 °F 23.9 °F 28.0 °F 83% 29.95 in 7.0 mi NNW 11.5 mph - N/A Snow Light Snow
3:35 PM 33.1 °F 22.2 °F 28.0 °F 82% 29.97 in 10.0 mi NNW 17.3 mph 25.3 mph N/A   Overcast
3:55 PM 33.3 °F 22.8 °F 27.7 °F 80% 29.98 in 10.0 mi NNW 16.1 mph 23.0 mph N/A   Overcast
4:15 PM 33.4 °F 24.3 °F 27.3 °F 78% 29.99 in 10.0 mi NNW 12.7 mph 19.6 mph N/A   Overcast
4:35 PM 33.4 °F 23.5 °F 27.3 °F 78% 29.99 in 10.0 mi NNW 15.0 mph 23.0 mph N/A   Overcast
4:55 PM 33.4 °F 24.3 °F 27.1 °F 78% 30.00 in 10.0 mi NNW 12.7 mph 20.7 mph N/A   Overcast
5:15 PM 33.4 °F 23.5 °F 27.0 °F 77% 30.01 in 10.0 mi NNW 15.0 mph - N/A   Overcast
5:35 PM 33.4 °F 24.3 °F 27.0 °F 77% 30.02 in 10.0 mi NNW 12.7 mph 17.3 mph N/A   Overcast
5:55 PM 33.4 °F 25.9 °F 27.0 °F 77% 30.03 in 10.0 mi NNW 9.2 mph - N/A   Overcast
6:15 PM 32.4 °F 24.6 °F 27.3 °F 82% 30.03 in 10.0 mi NNW 9.2 mph - N/A   Overcast
6:35 PM 32.4 °F 23.5 °F 27.3 °F 82% 30.04 in 10.0 mi NW 11.5 mph - N/A   Overcast
6:55 PM 32.2 °F 23.8 °F 27.3 °F 82% 30.05 in 10.0 mi NW 10.4 mph - N/A   Overcast
7:15 PM 32.2 °F 23.2 °F 27.0 °F 81% 30.06 in 10.0 mi NW 11.5 mph - N/A   Overcast
7:35 PM 32.0 °F 23.6 °F 27.1 °F 82% 30.06 in 10.0 mi NW 10.4 mph 16.1 mph N/A   Overcast
7:55 PM 31.5 °F 21.4 °F 27.0 °F 83% 30.08 in 10.0 mi NW 13.8 mph - N/A   Overcast
8:15 PM 31.1 °F 20.5 °F 26.6 °F 83% 30.08 in 10.0 mi NW 15.0 mph 20.7 mph N/A   Overcast
8:35 PM 30.9 °F 21.7 °F 26.4 °F 83% 30.08 in 10.0 mi NW 11.5 mph - N/A   Overcast
8:55 PM 30.7 °F 21.4 °F 26.4 °F 84% 30.09 in 10.0 mi NW 11.5 mph - N/A   Overcast
9:15 PM 30.6 °F 21.2 °F 26.1 °F 83% 30.09 in 10.0 mi NW 11.5 mph - N/A   Overcast
9:35 PM 30.7 °F 21.4 °F 25.7 °F 82% 30.10 in 10.0 mi NW 11.5 mph - N/A   Overcast
9:55 PM 30.6 °F 21.2 °F 25.7 °F 82% 30.10 in 10.0 mi NW 11.5 mph - N/A   Overcast
10:15 PM 30.6 °F 23.1 °F 25.5 °F 82% 30.10 in 10.0 mi NW 8.1 mph - N/A   Overcast
10:35 PM 30.4 °F 22.2 °F 25.7 °F 83% 30.11 in 10.0 mi NW 9.2 mph - N/A   Overcast
10:55 PM 30.2 °F 21.3 °F 25.5 °F 83% 30.11 in 10.0 mi NW 10.4 mph - N/A   Overcast
11:15 PM 30.2 °F 21.9 °F 25.3 °F 82% 30.11 in 10.0 mi NW 9.2 mph - N/A   Overcast
11:35 PM 30.0 °F 22.4 °F 25.3 °F 83% 30.11 in 10.0 mi NW 8.1 mph - N/A   Overcast
11:55 PM 30.0 °F 21.1 °F 25.3 °F 83% 30.12 in 10.0 mi WNW 10.4 mph - N/A   Overcast